This is the latest recevied weather packets stored in our database for station/object N9BLE. If no packets are shown the sender has not sent any weather packets the latest 10 day(s).
| Time | Temp. | Humidity | Pressure | Rain* | Wind** | Luminosity | Snow |
|---|---|---|---|---|---|---|---|
| 1778029964 | 11.11° C | 45% | 1012.7 hPa | 0 mm | - | 0 W/m² | - |
| 1778029676 | 11.11° C | 43% | 1012.8 hPa | 0 mm | - | 0 W/m² | - |
| 1778029359 | 11.11° C | 44% | 1012.9 hPa | 0 mm | - | 1 W/m² | - |
| 1778029057 | 11.11° C | 44% | 1012.8 hPa | 0 mm | - | 1 W/m² | - |
| 1778028753 | 11.11° C | 44% | 1012.7 hPa | 0 mm | - | 2 W/m² | - |
| 1778028449 | 11.11° C | 44% | 1012.8 hPa | 0 mm | - | 3 W/m² | - |
| 1778028147 | 11.67° C | 42% | 1012.6 hPa | 0 mm | - | 4 W/m² | - |
| 1778027843 | 11.67° C | 43% | 1012.5 hPa | 0 mm | - | 7 W/m² | - |
| 1778027540 | 11.67° C | 43% | 1012.6 hPa | 0 mm | - | 7 W/m² | - |
| 1778027235 | 11.67° C | 42% | 1012.3 hPa | 0 mm | - | 10 W/m² | - |
| 1778026932 | 11.67° C | 42% | 1012.6 hPa | 0 mm | - | 13 W/m² | - |
| 1778026628 | 11.67° C | 40% | 1012.5 hPa | 0 mm | - | 14 W/m² | - |
| 1778026326 | 11.67° C | 40% | 1012.5 hPa | 0 mm | - | 19 W/m² | - |
| 1778026022 | 12.22° C | 39% | 1012.4 hPa | 0 mm | - | 27 W/m² | - |
| 1778025720 | 12.22° C | 41% | 1012.4 hPa | 0 mm | - | 32 W/m² | - |
| 1778025417 | 12.22° C | 40% | 1012.5 hPa | 0 mm | - | 37 W/m² | - |
| 1778025115 | 12.22° C | 39% | 1012.4 hPa | 0 mm | - | 33 W/m² | - |
| 1778024811 | 12.22° C | 40% | 1012.4 hPa | 0 mm | - | 35 W/m² | - |
| 1778024508 | 12.22° C | 39% | 1012.7 hPa | 0 mm | - | 40 W/m² | - |
| 1778024209 | 12.22° C | 40% | 1012.7 hPa | 0 mm | - | 56 W/m² | - |
| 1778023903 | 12.22° C | 39% | 1012.5 hPa | 0 mm | - | 69 W/m² | - |
| 1778023600 | 12.22° C | 42% | 1012.6 hPa | 0 mm | - | 73 W/m² | - |
| 1778023298 | 12.22° C | 38% | 1012.7 hPa | 0 mm | - | 73 W/m² | - |
| 1778022994 | 12.78° C | 37% | 1012.6 hPa | 0 mm | - | 76 W/m² | - |
| 1778022693 | 12.78° C | 38% | 1012.7 hPa | 0 mm | - | 107 W/m² | - |
* Rain latest hour (hover to see other rain measurements)
** Current wind speed in m/s (hover to see current wind gust speed)